Regional Weather Roundup
Issued by NWS

Home | Current Version | Previous Version | Text Only | Print | Product List | Glossary Off
Versions: 1 2 3 4 5 6 7 8 9 10 11 12 13 14 15 16 17 18 19 20 21 22 23 24 25 26 27 28 29 30 31 32 33 34 35 36 37 38 39 40 41 42 43 44 45 46 47 48 49 50

604
ASUS45 KPSR 260710
RWRAZ

ARIZONA HOURLY REGIONAL WEATHER ROUNDUP
NATIONAL WEATHER SERVICE PHOENIX AZ
1200 AM MST SUN MAR 26 2017

NOTE: FAIR INDICATES FEW OR NO CLOUDS BELOW 12,000 FEET WITH NO
SIGNIFICANT WEATHER AND/OR OBSTRUCTIONS TO VISIBILITY.

AZZ001>003-036-260800-
NORTHWEST ARIZONA

CITY           SKY/WX    TMP DP  RH WIND       PRES   REMARKS
BULLHEAD CITY  CLEAR     70  36  28 N13       29.90S
KINGMAN        CLEAR     44  30  57 SE6       29.99S
$$

AZZ004>008-015-016-018-260800-
NORTH CENTRAL ARIZONA

CITY           SKY/WX    TMP DP  RH WIND       PRES   REMARKS
GRAND CANYON   CLEAR     35  30  82 CALM      30.03R
WILLIAMS       PTCLDY    32  27  80 S6        30.05S WCI  26
PRESCOTT       CLEAR     43  29  57 NW8       30.01F
FLAGSTAFF      CLEAR     35  28  75 W8        30.03F WCI  29
PAYSON         CLEAR     46  28  49 N5        30.03S
PAGE           CLEAR     50  38  63 VRB6      29.94R
$$

AZZ009>014-017-260800-
NORTHEAST ARIZONA

CITY           SKY/WX    TMP DP  RH WIND       PRES   REMARKS
WINSLOW        PTCLDY    43  30  60 W7        30.00R
SAINT JOHNS    CLEAR     36  29  75 S7        29.99S WCI  30
WINDOW ROCK    MOCLDY    38  30  73 S3        29.98F
SHOW LOW       CLEAR     36  25  64 S7        30.04S WCI  30
$$

AZZ023-260800-
GREATER PHOENIX AREA

CITY           SKY/WX    TMP DP  RH WIND       PRES   REMARKS
PHOENIX        PTCLDY    64  35  34 SW6       29.87S
BUCKEYE        PTCLDY    55  32  41 CALM      29.89S
LUKE AFB       CLEAR     62  30  30 W5        29.87S
DEER VALLEY    CLEAR     59  34  39 E5        29.88S
SCOTTSDALE     CLEAR     61  35  37 W3        29.90S
MESA-GATEWAY   PTCLDY    61  34  36 CALM      29.90R
$$

AZZ027-028-260800-
SOUTHWEST MARICOPA COUNTY AND PINAL COUNTY

CITY           SKY/WX    TMP DP  RH WIND       PRES   REMARKS
CASA GRANDE    NOT AVBL
GILA BEND      FAIR      65  34  31 SW9       29.89R
$$

AZZ503-504-507>509-260800-
SOUTHEAST ARIZONA

CITY           SKY/WX    TMP DP  RH WIND       PRES   REMARKS
TUCSON         MOCLDY    64  27  24 CALM      29.96S
DAVIS-MONTHAN  PTCLDY    62  27  26 W6        29.95R
NOGALES        MOCLDY    57  29  34 S6        29.99F
SIERRA VISTA   CLOUDY    56  27  32 W9        30.01F
DOUGLAS        MOCLDY    58  26  29 NE5       30.00R
SAFFORD        MOCLDY    58  29  33 NW9       29.91S
$$

AZZ020-021-025-026-031-260800-
SOUTHWEST ARIZONA

CITY           SKY/WX    TMP DP  RH WIND       PRES   REMARKS
YUMA           CLEAR     63  43  48 W8        29.91R
$$

CAZ031-033-041-043-047-048-061-260800-
SOUTHERN CALIFORNIA

CITY           SKY/WX    TMP DP  RH WIND       PRES   REMARKS
DOWNTOWN L.A.  CLEAR     59  53  80 CALM      30.03F
L.A. AIRPORT   PTCLDY    57  54  89 W8        30.04S
SAN DIEGO      MOCLDY    62  54  74 NW9       30.06F
BURBANK        CLEAR     56  50  80 E3        30.03S
ONTARIO        MOCLDY    56  52  86 SW7       30.04S
RIVERSIDE      CLEAR     54  52  93 CALM      30.04F
PALM SPRINGS   CLEAR     68  46  45 NW13G18   29.94S
EL CENTRO NAS  CLEAR     63  43  48 W13       29.92S
IMPERIAL       CLEAR     61  46  57 W10       29.90S
BLYTHE         CLEAR     61  41  47 W6        29.89R
NEEDLES        CLEAR     69  37  30 N9        29.90R
$$

NVZ020-UTZ003-260800-
SOUTHERN NEVADA-UTAH

CITY           SKY/WX    TMP DP  RH WIND       PRES   REMARKS
LAS VEGAS      PTCLDY    60  35  39 N7        29.97R
SALT LAKE CITY MOCLDY    39  38  96 W5        30.02S
$$

NMZ009-TXZ055-260800-
NEW MEXICO-WEST TEXAS

CITY           SKY/WX    TMP DP  RH WIND       PRES   REMARKS
ALBUQUERQUE    PTCLDY    50  30  46 NE6       29.97R
EL PASO        MOCLDY    67  19  16 NW17      29.89R
$$


........................KEY........................
SKY/WX - SKY CONDITION/WEATHER
TMP    - TEMPERATURE IN FAHRENHEIT
DP     - DEW POINT IN FAHRENHEIT
RH     - RELATIVE HUMIDITY IN PERCENT
WIND   - DIRECTION AND SPEED IN MILES PER HOUR (MPH)
VRB    - VARIABLE WIND DIRECTION
PRES   - MEAN SEA LEVEL PRESSURE IN INCHES OF MERCURY
         F - FALLING PRESSURE   R - RISING PRESSURE
         S - STEADY PRESSURE
VSB    - VISIBILITY IN MILES
HX     - HEAT INDEX IN FAHRENHEIT
WCI    - WIND CHILL INDEX IN FAHRENHEIT
TC     - TEMPERATURE IN CELSIUS WHICH IS ALSO KNOWN AS
         TEMPERATURE IN CENTIGRADE
AFB    - AIR FORCE BASE
         LUKE AFB IS LUKE AIR FORCE BASE
         DAVIS-MONTHAN IS DAVIS-MONTHAN AIR FORCE BASE
NAS    - NAVAL AIR STATION
         EL CENTRO NAS IS EL CENTRO NAVAL AIR STATION
N/A    - NOT AVAILABLE





USA.gov is the U.S. government's official web portal to all federal, state and local government web resources and services.